Location: Unspecified
(51.5147°N, 7.4673°E)
Time: 06:58:47
(UTC+01:00)

Transit 4A - Pass Details

Date: 20 February 2026
Orbit: 863 x 978 km, 66.8° (Epoch: 14 March)

Event Time Altitude Azimuth Distance (km) Brightness Sun altitude
Exits shadow 03:37:13 38° 81° (E) 1,351 9.0 -36.4°
Drops below altitude 10° 03:41:28 10° 46° (NE) 2,612 11.0 -35.8°
Sets 03:44:08 0° 41° (NE) 3,577 11.9 -35.5°
